| time (UTC) | temp C | wind direction | speed KPH | gust KPH | rain 1hr cm | rain 24hr cm | rain mn cm | humidity % | barometer mb |
| 20260505093029 | 13 | 184 | 4.8 | 14.5 | 0.00 | 0.00 | 0.00 | 84 | 1011.0 |
| 20260505092754 | 13 | 176 | 4.8 | 14.5 | 0.00 | 0.00 | 0.00 | 85 | 1011.1 |
| 20260505092017 | 13 | 212 | 6.4 | 17.7 | 0.00 | 0.00 | 0.00 | 85 | 1011.1 |
| 20260505091513 | 13 | 230 | 8.0 | 17.7 | 0.00 | 0.00 | 0.00 | 85 | 1011.1 |
| 20260505091006 | 13 | 212 | 8.0 | 17.7 | 0.00 | 0.00 | 0.00 | 85 | 1011.0 |
| 20260505090500 | 13 | 218 | 6.4 | 17.7 | 0.00 | 0.00 | 0.00 | 85 | 1011.0 |
| 20260505090225 | 13 | 165 | 4.8 | 12.9 | 0.00 | 0.00 | 0.00 | 85 | 1010.9 |
| 20260505085719 | 13 | 227 | 4.8 | 12.9 | 0.00 | 0.00 | 0.00 | 85 | 1010.9 |
| 20260505084945 | 13 | 212 | 4.8 | 14.5 | 0.00 | 0.00 | 0.00 | 85 | 1011.0 |
| 20260505084445 | 13 | 231 | 4.8 | 14.5 | 0.00 | 0.00 | 0.00 | 85 | 1011.0 |
| 20260505083944 | 13 | 229 | 4.8 | 11.3 | 0.00 | 0.00 | 0.00 | 85 | 1010.9 |
| 20260505083442 | 13 | 217 | 4.8 | 11.3 | 0.00 | 0.00 | 0.00 | 85 | 1011.0 |
| 20260505082945 | 13 | 206 | 6.4 | 14.5 | 0.00 | 0.00 | 0.00 | 85 | 1010.9 |
| 20260505082443 | 13 | 190 | 6.4 | 14.5 | 0.00 | 0.00 | 0.00 | 85 | 1010.9 |
| 20260505081942 | 13 | 0 | 6.4 | 14.5 | 0.00 | 0.00 | 0.00 | 85 | 1010.9 |
| 20260505081438 | 13 | 0 | 6.4 | 14.5 | 0.00 | 0.00 | 0.00 | 85 | 1010.9 |
| 20260505080940 | 13 | 219 | 4.8 | 12.9 | 0.00 | 0.00 | 0.00 | 85 | 1010.9 |
| 20260505080440 | 13 | 0 | 4.8 | 12.9 | 0.00 | 0.00 | 0.00 | 85 | 1010.9 |
| 20260505075938 | 13 | 223 | 3.2 | 8.0 | 0.00 | 0.00 | 0.00 | 86 | 1010.9 |
| 20260505075437 | 13 | 204 | 1.6 | 6.4 | 0.00 | 0.00 | 0.00 | 85 | 1010.9 |
| 20260505074935 | 13 | 187 | 3.2 | 9.7 | 0.00 | 0.00 | 0.00 | 85 | 1010.9 |
| 20260505074832 | 13 | 219 | 4.8 | 12.9 | 0.00 | 0.00 | 0.00 | 85 | 1010.9 |
| 20260505074720 | 13 | 223 | 3.2 | 9.7 | 0.00 | 0.00 | 0.00 | 85 | 1010.9 |
| 20260505073434 | 13 | 192 | 3.2 | 12.9 | 0.00 | 0.00 | 0.00 | 86 | 1010.8 |
| 20260505072935 | 13 | 211 | 3.2 | 11.3 | 0.00 | 0.00 | 0.00 | 87 | 1010.8 |
| 20260505072435 | 13 | 188 | 1.6 | 11.3 | 0.00 | 0.00 | 0.00 | 87 | 1010.8 |
| 20260505071932 | 12 | 195 | 1.6 | 4.8 | 0.00 | 0.00 | 0.00 | 86 | 1010.8 |
| 20260505071435 | 12 | 211 | 1.6 | 11.3 | 0.00 | 0.00 | 0.00 | 86 | 1010.8 |
| 20260505070933 | 12 | 227 | 3.2 | 11.3 | 0.00 | 0.00 | 0.00 | 87 | 1010.8 |
| 20260505070435 | 12 | 187 | 1.6 | 8.0 | 0.00 | 0.00 | 0.00 | 87 | 1010.8 |
| 20260505065932 | 12 | 198 | 3.2 | 8.0 | 0.00 | 0.00 | 0.00 | 87 | 1010.8 |
| 20260505065434 | 12 | 173 | 4.8 | 12.9 | 0.00 | 0.00 | 0.00 | 87 | 1010.8 |
| 20260505064939 | 12 | 169 | 4.8 | 11.3 | 0.00 | 0.00 | 0.00 | 85 | 1010.9 |
| 20260505064933 | 12 | 184 | 4.8 | 12.9 | 0.00 | 0.00 | 0.00 | 86 | 1010.8 |
| 20260505064557 | 13 | 200 | 4.8 | 11.3 | 0.00 | 0.00 | 0.00 | 84 | 1010.9 |
| 20260505063434 | 13 | 173 | 4.8 | 11.3 | 0.00 | 0.00 | 0.00 | 83 | 1010.9 |
| 20260505062933 | 13 | 197 | 6.4 | 14.5 | 0.00 | 0.00 | 0.00 | 83 | 1010.9 |
| 20260505062434 | 13 | 171 | 6.4 | 16.1 | 0.00 | 0.00 | 0.00 | 83 | 1010.9 |
| 20260505061933 | 13 | 209 | 6.4 | 16.1 | 0.00 | 0.00 | 0.00 | 83 | 1010.9 |
| 20260505061432 | 13 | 212 | 6.4 | 16.1 | 0.00 | 0.00 | 0.00 | 83 | 1010.9 |
| 20260505060933 | 13 | 232 | 6.4 | 16.1 | 0.00 | 0.00 | 0.00 | 84 | 1010.9 |
| 20260505060430 | 13 | 176 | 6.4 | 14.5 | 0.00 | 0.00 | 0.00 | 84 | 1010.8 |
| 20260505055931 | 13 | 194 | 6.4 | 14.5 | 0.00 | 0.00 | 0.00 | 84 | 1010.8 |
| 20260505055431 | 12 | 229 | 6.4 | 12.9 | 0.00 | 0.00 | 0.00 | 85 | 1010.9 |
| 20260505054931 | 12 | 200 | 6.4 | 14.5 | 0.00 | 0.00 | 0.00 | 85 | 1011.0 |
| 20260505054433 | 12 | 159 | 6.4 | 16.1 | 0.00 | 0.00 | 0.00 | 86 | 1011.0 |
| 20260505053931 | 12 | 211 | 6.4 | 16.1 | 0.00 | 0.00 | 0.00 | 86 | 1011.1 |
| 20260505053437 | 12 | 239 | 6.4 | 12.9 | 0.00 | 0.00 | 0.00 | 85 | 1011.1 |
| 20260505052931 | 12 | 234 | 6.4 | 16.1 | 0.00 | 0.00 | 0.00 | 86 | 1011.1 |
| 20260505052433 | 12 | 181 | 4.8 | 16.1 | 0.00 | 0.00 | 0.00 | 86 | 1011.2 |
| 20260505051925 | 12 | 208 | 4.8 | 12.9 | 0.00 | 0.00 | 0.00 | 86 | 1011.3 |
| 20260505051655 | 12 | 155 | 4.8 | 14.5 | 0.00 | 0.00 | 0.00 | 86 | 1011.3 |
| 20260505050923 | 12 | 167 | 4.8 | 14.5 | 0.00 | 0.00 | 0.00 | 85 | 1011.4 |
| 20260505050424 | 12 | 187 | 4.8 | 12.9 | 0.00 | 0.00 | 0.00 | 85 | 1011.4 |
| 20260505041419 | 12 | 213 | 4.8 | 12.9 | 0.00 | 0.00 | 0.00 | 86 | 1011.6 |
| 20260505040917 | 12 | 209 | 4.8 | 12.9 | 0.00 | 0.00 | 0.00 | 86 | 1011.6 |
| 20260505040416 | 12 | 148 | 4.8 | 12.9 | 0.00 | 0.00 | 0.00 | 86 | 1011.6 |
| 20260505035916 | 12 | 224 | 4.8 | 12.9 | 0.00 | 0.00 | 0.00 | 86 | 1011.6 |
| 20260505035417 | 12 | 173 | 4.8 | 12.9 | 0.00 | 0.00 | 0.00 | 86 | 1011.6 |
| 20260505034911 | 12 | 211 | 4.8 | 11.3 | 0.00 | 0.00 | 0.00 | 86 | 1011.6 |
| 20260505034636 | 12 | 169 | 4.8 | 9.7 | 0.00 | 0.00 | 0.00 | 86 | 1011.6 |
| 20260505033859 | 12 | 203 | 4.8 | 16.1 | 0.00 | 0.00 | 0.00 | 86 | 1011.5 |
| 20260505033353 | 11 | 228 | 4.8 | 16.1 | 0.00 | 0.00 | 0.00 | 86 | 1011.6 |
| 20260505032847 | 12 | 227 | 4.8 | 12.9 | 0.00 | 0.00 | 0.00 | 86 | 1011.6 |
| 20260505032341 | 12 | 220 | 4.8 | 11.3 | 0.00 | 0.00 | 0.00 | 85 | 1011.7 |
| 20260505031835 | 12 | 192 | 4.8 | 11.3 | 0.00 | 0.00 | 0.00 | 85 | 1011.7 |
| 20260505031329 | 12 | 201 | 4.8 | 11.3 | 0.00 | 0.00 | 0.00 | 85 | 1011.7 |
| 20260505030823 | 12 | 211 | 4.8 | 11.3 | 0.00 | 0.00 | 0.00 | 85 | 1011.7 |
| 20260505030318 | 12 | 211 | 4.8 | 11.3 | 0.00 | 0.00 | 0.00 | 85 | 1011.8 |
| 20260505025824 | 12 | 263 | 4.8 | 11.3 | 0.00 | 0.00 | 0.00 | 85 | 1011.8 |
| 20260505025306 | 12 | 252 | 4.8 | 12.9 | 0.00 | 0.00 | 0.00 | 85 | 1011.9 |
| 20260505024800 | 12 | 190 | 4.8 | 12.9 | 0.00 | 0.00 | 0.00 | 85 | 1011.9 |
| 20260505024524 | 12 | 219 | 4.8 | 11.3 | 0.00 | 0.00 | 0.00 | 85 | 1011.9 |
| 20260505023748 | 12 | 210 | 4.8 | 14.5 | 0.00 | 0.00 | 0.00 | 84 | 1011.9 |
| 20260505023242 | 12 | 202 | 6.4 | 14.5 | 0.00 | 0.00 | 0.00 | 84 | 1011.9 |
| 20260505022734 | 12 | 215 | 6.4 | 14.5 | 0.00 | 0.00 | 0.00 | 84 | 1011.8 |
| 20260505022228 | 12 | 242 | 6.4 | 12.9 | 0.00 | 0.00 | 0.00 | 83 | 1011.9 |
| 20260505021724 | 12 | 181 | 6.4 | 19.3 | 0.00 | 0.00 | 0.00 | 83 | 1011.9 |
| 20260505020711 | 12 | 224 | 8.0 | 19.3 | 0.00 | 0.00 | 0.00 | 82 | 1012.0 |
| 20260505020204 | 13 | 202 | 8.0 | 19.3 | 0.00 | 0.00 | 0.00 | 81 | 1012.0 |
| 20260505015659 | 13 | 223 | 8.0 | 17.7 | 0.00 | 0.00 | 0.00 | 81 | 1011.9 |
| 20260505015424 | 13 | 231 | 8.0 | 17.7 | 0.00 | 0.00 | 0.00 | 80 | 1011.7 |
| 20260505014647 | 13 | 326 | 9.7 | 17.7 | 0.00 | 0.00 | 0.00 | 80 | 1011.7 |
| 20260505014142 | 13 | 221 | 8.0 | 17.7 | 0.00 | 0.00 | 0.00 | 81 | 1011.7 |
| 20260505013636 | 13 | 232 | 8.0 | 17.7 | 0.00 | 0.00 | 0.00 | 81 | 1011.8 |
| 20260505013128 | 13 | 237 | 8.0 | 17.7 | 0.00 | 0.00 | 0.00 | 80 | 1011.7 |
| 20260505012624 | 13 | 175 | 6.4 | 17.7 | 0.00 | 0.00 | 0.00 | 80 | 1011.7 |
| 20260505012118 | 13 | 189 | 6.4 | 16.1 | 0.00 | 0.00 | 0.00 | 79 | 1011.7 |
| 20260505011612 | 13 | 200 | 8.0 | 16.1 | 0.00 | 0.00 | 0.00 | 79 | 1011.6 |
| 20260505011104 | 13 | 202 | 6.4 | 16.1 | 0.00 | 0.00 | 0.00 | 79 | 1011.6 |
| 20260505010559 | 13 | 175 | 6.4 | 14.5 | 0.00 | 0.00 | 0.00 | 78 | 1011.6 |
| 20260505010053 | 13 | 156 | 4.8 | 11.3 | 0.00 | 0.00 | 0.00 | 78 | 1011.5 |
| 20260505005549 | 13 | 213 | 4.8 | 16.1 | 0.00 | 0.00 | 0.00 | 79 | 1011.4 |
| 20260505005043 | 13 | 246 | 6.4 | 16.1 | 0.00 | 0.00 | 0.00 | 80 | 1011.4 |
| 20260505004547 | 12 | 187 | 6.4 | 14.5 | 0.00 | 0.00 | 0.00 | 82 | 1011.3 |
| 20260505004029 | 12 | 175 | 6.4 | 12.9 | 0.00 | 0.00 | 0.00 | 82 | 1011.2 |
| 20260505003756 | 12 | 240 | 6.4 | 14.5 | 0.00 | 0.00 | 0.00 | 82 | 1011.2 |
| 20260505003024 | 12 | 164 | 6.4 | 14.5 | 0.00 | 0.00 | 0.00 | 83 | 1011.2 |
| 20260505002511 | 12 | 171 | 4.8 | 14.5 | 0.00 | 0.00 | 0.00 | 84 | 1011.2 |
| 20260505002006 | 12 | 250 | 4.8 | 11.3 | 0.00 | 0.00 | 0.00 | 83 | 1011.2 |
| 20260505001458 | 12 | 206 | 6.4 | 12.9 | 0.00 | 0.00 | 0.00 | 83 | 1011.1 |
| 20260505000954 | 12 | 196 | 6.4 | 12.9 | 0.00 | 0.00 | 0.00 | 83 | 1011.1 |
| 20260505000720 | 12 | 164 | 6.4 | 12.9 | 0.00 | 0.00 | 0.00 | 83 | 1011.0 |
| 20260504235943 | 12 | 181 | 6.4 | 14.5 | 0.00 | 0.00 | 0.00 | 83 | 1011.0 |
| 20260504235435 | 12 | 227 | 6.4 | 14.5 | 0.00 | 0.00 | 0.00 | 83 | 1011.0 |
| 20260504234930 | 12 | 220 | 6.4 | 17.7 | 0.00 | 0.00 | 0.00 | 83 | 1011.0 |
| 20260504234422 | 12 | 188 | 6.4 | 17.7 | 0.00 | 0.00 | 0.00 | 83 | 1011.0 |
| 20260504233917 | 12 | 218 | 6.4 | 22.5 | 0.00 | 0.00 | 0.00 | 82 | 1010.9 |
| 20260504233411 | 12 | 168 | 6.4 | 22.5 | 0.00 | 0.00 | 0.00 | 82 | 1011.0 |
| 20260504232905 | 12 | 164 | 6.4 | 14.5 | 0.00 | 0.00 | 0.00 | 81 | 1010.9 |
| 20260504232401 | 12 | 233 | 6.4 | 14.5 | 0.00 | 0.00 | 0.00 | 80 | 1010.9 |
| 20260504231853 | 12 | 225 | 6.4 | 14.5 | 0.00 | 0.00 | 0.00 | 79 | 1010.9 |
| 20260504231349 | 13 | 168 | 8.0 | 14.5 | 0.00 | 0.00 | 0.00 | 79 | 1010.9 |
| 20260504230849 | 13 | 215 | 6.4 | 19.3 | 0.00 | 0.00 | 0.00 | 79 | 1010.8 |
| 20260504230348 | 13 | 239 | 8.0 | 19.3 | 0.00 | 0.00 | 0.00 | 78 | 1010.8 |
| 20260504225849 | 13 | 189 | 8.0 | 17.7 | 0.00 | 0.00 | 0.00 | 78 | 1010.8 |
| 20260504225621 | 13 | 221 | 6.4 | 17.7 | 0.00 | 0.00 | 0.00 | 77 | 1010.9 |
| 20260504224848 | 13 | 165 | 6.4 | 17.7 | 0.00 | 0.00 | 0.00 | 77 | 1010.9 |
| 20260504224348 | 13 | 180 | 6.4 | 14.5 | 0.00 | 0.00 | 0.00 | 77 | 1010.8 |
| 20260504223849 | 13 | 221 | 8.0 | 16.1 | 0.00 | 0.00 | 0.00 | 76 | 1010.8 |
| 20260504223349 | 13 | 217 | 8.0 | 20.9 | 0.00 | 0.00 | 0.00 | 76 | 1010.9 |
| 20260504222849 | 13 | 180 | 9.7 | 20.9 | 0.00 | 0.00 | 0.00 | 76 | 1010.9 |
| 20260504222348 | 13 | 179 | 8.0 | 20.9 | 0.00 | 0.00 | 0.00 | 76 | 1010.8 |
| 20260504222119 | 13 | 223 | 8.0 | 17.7 | 0.00 | 0.00 | 0.00 | 75 | 1010.8 |
| 20260504221344 | 13 | 189 | 8.0 | 17.7 | 0.00 | 0.00 | 0.00 | 76 | 1010.8 |
| 20260504220845 | 13 | 199 | 8.0 | 19.3 | 0.00 | 0.00 | 0.00 | 75 | 1010.8 |
| 20260504220346 | 13 | 210 | 8.0 | 22.5 | 0.00 | 0.00 | 0.00 | 75 | 1010.8 |
| 20260504215846 | 13 | 207 | 8.0 | 22.5 | 0.00 | 0.00 | 0.00 | 75 | 1010.8 |
| 20260504215619 | 13 | 252 | 8.0 | 19.3 | 0.00 | 0.00 | 0.00 | 75 | 1010.7 |
| 20260504214848 | 14 | 190 | 8.0 | 24.1 | 0.00 | 0.00 | 0.00 | 75 | 1010.7 |
| 20260504214341 | 14 | 143 | 8.0 | 24.1 | 0.00 | 0.00 | 0.00 | 75 | 1010.7 |
| 20260504213835 | 14 | 194 | 9.7 | 22.5 | 0.00 | 0.00 | 0.00 | 75 | 1010.7 |
| 20260504213329 | 14 | 216 | 9.7 | 22.5 | 0.00 | 0.00 | 0.00 | 74 | 1010.7 |
| 20260504212824 | 14 | 215 | 8.0 | 22.5 | 0.00 | 0.00 | 0.00 | 74 | 1010.7 |
| 20260504212317 | 14 | 145 | 8.0 | 19.3 | 0.00 | 0.00 | 0.00 | 74 | 1010.7 |
| 20260504211811 | 14 | 149 | 9.7 | 17.7 | 0.00 | 0.00 | 0.00 | 73 | 1010.8 |
| 20260504211305 | 14 | 162 | 9.7 | 19.3 | 0.00 | 0.00 | 0.00 | 73 | 1010.8 |
| 20260504211030 | 14 | 177 | 8.0 | 19.3 | 0.00 | 0.00 | 0.00 | 73 | 1010.8 |
| 20260504210252 | 14 | 180 | 8.0 | 19.3 | 0.00 | 0.00 | 0.00 | 73 | 1010.7 |
| 20260504205747 | 14 | 163 | 8.0 | 25.7 | 0.00 | 0.00 | 0.00 | 73 | 1010.8 |
| 20260504205242 | 14 | 195 | 8.0 | 25.7 | 0.00 | 0.00 | 0.00 | 73 | 1010.7 |
| 20260504204734 | 15 | 171 | 8.0 | 17.7 | 0.00 | 0.00 | 0.00 | 73 | 1010.8 |
| 20260504204228 | 15 | 165 | 8.0 | 16.1 | 0.00 | 0.00 | 0.00 | 73 | 1010.8 |
| 20260504203723 | 15 | 184 | 8.0 | 17.7 | 0.00 | 0.00 | 0.00 | 73 | 1010.8 |
| 20260504203217 | 15 | 186 | 8.0 | 19.3 | 0.00 | 0.00 | 0.00 | 72 | 1010.8 |
| 20260504202711 | 15 | 178 | 8.0 | 22.5 | 0.00 | 0.00 | 0.00 | 72 | 1010.8 |
| 20260504202205 | 15 | 170 | 8.0 | 22.5 | 0.00 | 0.00 | 0.00 | 72 | 1010.8 |
| 20260504201659 | 15 | 170 | 8.0 | 20.9 | 0.00 | 0.00 | 0.00 | 71 | 1010.9 |
| 20260504201153 | 15 | 151 | 6.4 | 19.3 | 0.00 | 0.00 | 0.00 | 71 | 1010.9 |
| 20260504200646 | 15 | 165 | 6.4 | 19.3 | 0.00 | 0.00 | 0.00 | 71 | 1010.9 |
| 20260504200140 | 15 | 155 | 8.0 | 32.2 | 0.00 | 0.00 | 0.00 | 71 | 1011.0 |
| 20260504195635 | 15 | 225 | 9.7 | 32.2 | 0.00 | 0.00 | 0.00 | 71 | 1011.0 |
| 20260504195129 | 15 | 173 | 8.0 | 17.7 | 0.00 | 0.00 | 0.00 | 71 | 1011.0 |
| 20260504194623 | 15 | 186 | 8.0 | 17.7 | 0.00 | 0.00 | 0.00 | 71 | 1011.1 |
| 20260504194117 | 15 | 201 | 8.0 | 17.7 | 0.00 | 0.00 | 0.00 | 71 | 1011.2 |
| 20260504193617 | 15 | 140 | 9.7 | 24.1 | 0.00 | 0.00 | 0.00 | 71 | 1011.3 |
| 20260504193116 | 15 | 143 | 9.7 | 24.1 | 0.00 | 0.00 | 0.00 | 71 | 1011.3 |
| 20260504192616 | 15 | 160 | 9.7 | 20.9 | 0.00 | 0.00 | 0.00 | 70 | 1011.3 |
| 20260504192349 | 15 | 156 | 8.0 | 24.1 | 0.00 | 0.00 | 0.00 | 69 | 1011.4 |
| 20260504191617 | 15 | 169 | 8.0 | 24.1 | 0.00 | 0.00 | 0.00 | 69 | 1011.4 |
| 20260504191116 | 15 | 165 | 9.7 | 24.1 | 0.00 | 0.00 | 0.00 | 69 | 1011.5 |
| 20260504190615 | 15 | 210 | 9.7 | 19.3 | 0.00 | 0.00 | 0.00 | 69 | 1011.5 |
| 20260504190116 | 15 | 174 | 8.0 | 27.4 | 0.00 | 0.00 | 0.00 | 69 | 1011.6 |
| 20260504185616 | 15 | 186 | 8.0 | 27.4 | 0.00 | 0.00 | 0.00 | 68 | 1011.6 |
| 20260504185349 | 15 | 164 | 8.0 | 25.7 | 0.00 | 0.00 | 0.00 | 68 | 1011.7 |
| 20260504184617 | 15 | 181 | 8.0 | 22.5 | 0.00 | 0.00 | 0.00 | 67 | 1011.8 |
| 20260504184117 | 15 | 188 | 6.4 | 22.5 | 0.00 | 0.00 | 0.00 | 67 | 1011.9 |
| 20260504183617 | 15 | 185 | 8.0 | 20.9 | 0.00 | 0.00 | 0.00 | 68 | 1012.0 |
| 20260504183112 | 15 | 185 | 8.0 | 20.9 | 0.00 | 0.00 | 0.00 | 68 | 1012.0 |
| 20260504182844 | 15 | 170 | 8.0 | 19.3 | 0.00 | 0.00 | 0.00 | 68 | 1012.0 |
| 20260504182114 | 15 | 161 | 9.7 | 24.1 | 0.00 | 0.00 | 0.00 | 68 | 1012.1 |
| 20260504181612 | 15 | 168 | 8.0 | 24.1 | 0.00 | 0.00 | 0.00 | 68 | 1012.1 |
| 20260504181112 | 15 | 272 | 8.0 | 22.5 | 0.00 | 0.00 | 0.00 | 68 | 1012.1 |
| 20260504180613 | 15 | 218 | 8.0 | 22.5 | 0.00 | 0.00 | 0.00 | 68 | 1012.3 |
| 20260504180113 | 15 | 207 | 8.0 | 20.9 | 0.00 | 0.00 | 0.00 | 68 | 1012.4 |
| 20260504175612 | 15 | 158 | 8.0 | 19.3 | 0.00 | 0.00 | 0.00 | 68 | 1012.4 |
| 20260504175114 | 15 | 200 | 8.0 | 22.5 | 0.00 | 0.00 | 0.00 | 69 | 1012.5 |
| 20260504174607 | 15 | 188 | 8.0 | 22.5 | 0.00 | 0.00 | 0.00 | 69 | 1012.5 |
| 20260504174107 | 15 | 175 | 8.0 | 19.3 | 0.00 | 0.00 | 0.00 | 69 | 1012.5 |
| 20260504173609 | 15 | 170 | 8.0 | 19.3 | 0.00 | 0.00 | 0.00 | 69 | 1012.5 |
| 20260504173107 | 15 | 162 | 8.0 | 20.9 | 0.00 | 0.00 | 0.00 | 69 | 1012.6 |
| 20260504172608 | 15 | 230 | 8.0 | 22.5 | 0.00 | 0.00 | 0.00 | 69 | 1012.7 |
| 20260504172108 | 15 | 233 | 8.0 | 25.7 | 0.00 | 0.00 | 0.00 | 69 | 1012.7 |
| 20260504171608 | 15 | 149 | 8.0 | 25.7 | 0.00 | 0.00 | 0.00 | 69 | 1012.7 |
| 20260504171108 | 15 | 174 | 6.4 | 17.7 | 0.00 | 0.00 | 0.00 | 69 | 1012.8 |
| 20260504170842 | 15 | 184 | 6.4 | 17.7 | 0.00 | 0.00 | 0.00 | 69 | 1012.9 |
| 20260504170104 | 15 | 156 | 8.0 | 17.7 | 0.00 | 0.00 | 0.00 | 69 | 1013.0 |
| 20260504151102 | 15 | 165 | 8.0 | 19.3 | 0.00 | 0.00 | 0.00 | 68 | 1013.8 |
| 20260504150556 | 15 | 315 | 9.7 | 19.3 | 0.00 | 0.00 | 0.00 | 69 | 1013.9 |
| 20260504141043 | 14 | 211 | 8.0 | 19.3 | 0.00 | 0.00 | 0.00 | 70 | 1014.2 |
| 20260504140543 | 14 | 198 | 8.0 | 17.7 | 0.00 | 0.00 | 0.00 | 70 | 1014.2 |
| 20260504140313 | 14 | 207 | 8.0 | 19.3 | 0.00 | 0.00 | 0.00 | 70 | 1014.3 |
| 20260504130503 | 14 | 280 | 9.7 | 25.7 | 0.00 | 0.00 | 0.00 | 63 | 1014.7 |
| 20260504110240 | 11 | 215 | 11.3 | 27.4 | 0.00 | 0.00 | 0.00 | 69 | 1015.4 |
| 20260504100128 | 10 | 237 | 8.0 | 19.3 | 0.00 | 0.00 | 0.00 | 67 | 1015.2 |